Regional Weather Roundup
Issued by NWS Sioux Falls, SD

Home | Current Version | Previous Version | Text Only | Print | Product List | Glossary On
Versions: 1 2 3 4 5 6 7 8 9 10 11 12 13 14 15 16 17 18 19 20 21 22 23 24 25 26 27 28 29 30 31 32 33 34 35 36 37 38 39 40 41 42 43 44 45 46 47 48 49 50
000
ASUS43 KFSD 180602
RWRFSD

WEATHER ROUNDUP FOR SE SOUTH DAKOTA/SW MINNESOTA/NW IOWA
NATIONAL WEATHER SERVICE SIOUX FALLS SD
1200 AM CST THU DEC 18 2014

NOTE: "FAIR" INDICATES FEW OR NO CLOUDS BELOW 12,000 FEET WITH NO
SIGNIFICANT WEATHER AND OR OBSTRUCTIONS TO VISIBILITY.


SDZ038>040-050-052>070-180700-
SOUTHEAST SOUTH DAKOTA

CITY           SKY/WX    TMP DP  RH WIND       PRES   REMARKS
CHAMBERLAIN    NOT AVBL
HURON          CLOUDY    13  10  88 S8        30.26R WCI   2
6HR MIN TEMP:   8; 6HR MAX TEMP:  13;

MADISON        FAIR       9   9 100 MISG      30.24S
MITCHELL       CLOUDY    16  12  84 SE7       30.27S WCI   6
6HR MIN TEMP:  10; 6HR MAX TEMP:  16;

SIOUX FALLS    CLOUDY    13  10  88 CALM      30.26S
6HR MIN TEMP:   6; 6HR MAX TEMP:  14;

WINNER         CLOUDY    22  19  89 SE9       30.15R WCI  12
YANKTON        CLOUDY    18  12  79 CALM      30.28S
$$

MNZ071-072-080-081-089-090-097-098-180700-
SOUTHWEST MINNESOTA

CITY           SKY/WX    TMP DP  RH WIND       PRES   REMARKS
FAIRMONT       PTCLDY    10   5  79 CALM      30.29S
JACKSON        PTCLDY    10   7  85 CALM      30.27F
LUVERNE        PTCLDY    14  10  85 CALM      30.28R
MARSHALL       PTCLDY     3  -2  78 CALM      30.29F
6HR MIN TEMP:   3; 6HR MAX TEMP:  12;

MONTEVIDEO     PTCLDY     7   5  92 CALM      30.33R
PIPESTONE      FAIR      10   7  85 CALM      30.24S
REDWOOD FALLS  PTCLDY     9   5  84 SW3       30.32R
TRACY          PTCLDY     8   6  90 CALM      30.28F
WINDOM         PTCLDY     7   5  92 CALM      30.28S
WORTHINGTON    PTCLDY     9   7  92 CALM      30.26S
$$

IAZ001>003-012>014-020>022-031-032-NEZ013-014-SDZ071-180700-
NORTHWEST IOWA

CITY           SKY/WX    TMP DP  RH WIND       PRES   REMARKS
CHEROKEE       CLOUDY    21  19  91 CALM      30.28S
DENISON        CLOUDY    25  19  80 CALM      30.27R
ESTHERVILLE    PTCLDY     9   6  88 N5        30.27F WCI   1
SIOUX CITY     CLOUDY    25  19  78 SE6       30.28S WCI  18
6HR MIN TEMP:  22; 6HR MAX TEMP:  26;

SPENCER        PTCLDY    13   8  81 NE3       30.28R
6HR MIN TEMP:  12; 6HR MAX TEMP:  19;

$$

ABBREVIATIONS USED IN REMARKS
   TC - TEMPERATURE IN CELSIUS
  WCI - WIND CHILL INDEX
   HX - HEAT INDEX
  VSB - VISIBILITY



USA.gov is the U.S. government's official web portal to all federal, state and local government web resources and services.